Jackson, MN

5:20 AM CDT on March 24, 2017 (GMT -0500)
Jackson Municipal

Weather History for KMJQ - October, 2011

Change the Weather History Date:

Saturday, October 22, 2011

  Actual Average Record
Temperature  
Mean Temperature 46 °F -  
Max Temperature 60 °F 54 °F 73 °F (2003)
Min Temperature 33 °F 35 °F 21 °F (1997)
Degree Days  
Heating Degree Days 18    
Moisture  
Dew Point 35 °F    
Average Humidity 63    
Maximum Humidity 93    
Minimum Humidity 36    
Precipitation  
Precipitation 0.00 in - - ()
Sea Level Pressure  
Sea Level Pressure 30.08 in    
Wind  
Wind Speed 5 mph (WNW)    
Max Wind Speed 10 mph    
Max Gust Speed -    
Visibility 10 miles    
Events      
Averages and records for this station are not official NWS values.
T = Trace of Precipitation, MM = Missing Value Source: NWS Daily Summary

Daily Weather History Graph

Daily Weather History Graph

Search for Another Location

Airport or City:

Trip Planner

Search our weather history database for the weather conditions in past years. The results will help you decide how hot, cold, wet, or windy it might be!

Date:

Astronomy

Oct. 22, 2011 Rise Set
Actual Time 7:42 AM CDT 6:25 PM CDT
Civil Twilight 7:13 AM CDT 6:54 PM CDT
Nautical Twilight 6:39 AM CDT 7:28 PM CDT
Astronomical Twilight 6:06 AM CDT 8:01 PM CDT
Moon 2:32 AM CDT (10/22) 3:51 PM CDT (10/22)
Length of Visible Light 11h 41m
Length of Day
10h 43m
Waning Crescent, 23% of the Moon is Illuminated
Oct 22
Waning Crescent
Oct 26
New
Nov 2
First Quarter
Nov 10
Full
Nov 18
Last Quarter

Hourly Weather History & Observations

Time (CDT) Temp. Windchill Dew Point Humidity Pressure Visibility Wind Dir Wind Speed Gust Speed Precip Events Conditions
12:13 AM 44.6 °F 40.2 °F 35.6 °F 71% 30.07 in 10.0 mi NW 8.1 mph - N/A   Clear
12:33 AM 44.6 °F 39.7 °F 35.6 °F 71% 30.07 in 10.0 mi NW 9.2 mph - N/A   Clear
12:53 AM 44.6 °F 39.2 °F 35.6 °F 71% 30.07 in 10.0 mi NW 10.4 mph - N/A   Clear
1:13 AM 42.8 °F 37.5 °F 35.6 °F 76% 30.07 in 10.0 mi NW 9.2 mph - N/A   Clear
1:33 AM 42.8 °F 38.0 °F 35.6 °F 76% 30.07 in 10.0 mi NW 8.1 mph - N/A   Clear
2:13 AM 44.6 °F 42.2 °F 35.6 °F 71% 30.07 in 10.0 mi North 4.6 mph - N/A   Scattered Clouds
2:33 AM 44.6 °F 43.1 °F 35.6 °F 71% 30.07 in 10.0 mi North 3.5 mph - N/A   Scattered Clouds
2:53 AM 42.8 °F 40.1 °F 35.6 °F 76% 30.07 in 10.0 mi North 4.6 mph - N/A   Scattered Clouds
3:13 AM 41.0 °F 38.0 °F 33.8 °F 76% 30.07 in 10.0 mi North 4.6 mph - N/A   Clear
3:33 AM 41.0 °F 37.1 °F 33.8 °F 76% 30.08 in 10.0 mi NNW 5.8 mph - N/A   Clear
3:53 AM 39.2 °F 35.0 °F 33.8 °F 81% 30.08 in 10.0 mi NW 5.8 mph - N/A   Clear
4:13 AM 41.0 °F 36.4 °F 33.8 °F 76% 30.08 in 10.0 mi NNW 6.9 mph - N/A   Clear
4:32 AM 37.4 °F 32.8 °F 33.8 °F 87% 30.09 in 10.0 mi NW 5.8 mph - N/A   Clear
4:53 AM 37.4 °F 32.1 °F 32.0 °F 81% 30.09 in 10.0 mi NW 6.9 mph - N/A   Clear
5:33 AM 35.6 °F 29.9 °F 32.0 °F 87% 30.10 in 10.0 mi NW 6.9 mph - N/A   Clear
6:13 AM 35.6 °F 32.8 °F 32.0 °F 87% 30.11 in 10.0 mi NNW 3.5 mph - N/A   Clear
6:32 AM 35.6 °F 30.7 °F 32.0 °F 87% 30.11 in 10.0 mi NNW 5.8 mph - N/A   Clear
6:53 AM 33.8 °F 27.7 °F 32.0 °F 93% 30.12 in 10.0 mi NNW 6.9 mph - N/A   Clear
7:13 AM 33.8 °F 27.7 °F 32.0 °F 93% 30.12 in 10.0 mi NNW 6.9 mph - N/A   Clear
7:33 AM 33.8 °F 29.6 °F 32.0 °F 93% 30.12 in 10.0 mi NW 4.6 mph - N/A   Clear
7:53 AM 33.8 °F - 32.0 °F 93% 30.12 in 7.0 mi Calm Calm - N/A   Clear
8:13 AM 33.8 °F 30.8 °F 32.0 °F 93% 30.13 in 10.0 mi West 3.5 mph - N/A   Clear
8:32 AM 35.6 °F 31.7 °F 32.0 °F 87% 30.13 in 10.0 mi West 4.6 mph - N/A   Clear
8:53 AM 35.6 °F 31.7 °F 33.8 °F 93% 30.13 in 10.0 mi NNW 4.6 mph - N/A   Clear
9:13 AM 41.0 °F 39.0 °F 35.6 °F 81% 30.13 in 10.0 mi NNW 3.5 mph - N/A   Clear
9:33 AM 42.8 °F - 35.6 °F 76% 30.13 in 10.0 mi Calm Calm - N/A   Clear
9:53 AM 44.6 °F - 37.4 °F 76% 30.14 in 10.0 mi Calm Calm - N/A   Clear
10:33 AM 50.0 °F - 37.4 °F 62% 30.14 in 7.0 mi Calm Calm - N/A   Clear
10:53 AM 50.0 °F - 37.4 °F 62% 30.14 in 10.0 mi ENE 4.6 mph - N/A   Clear
11:13 AM 51.8 °F - 37.4 °F 58% 30.14 in 10.0 mi ENE 3.5 mph - N/A   Clear
11:33 AM 53.6 °F - 37.4 °F 54% 30.14 in 10.0 mi NE 3.5 mph - N/A   Clear
11:53 AM 53.6 °F - 35.6 °F 51% 30.14 in 10.0 mi ENE 4.6 mph - N/A   Clear
12:12 PM 55.4 °F - 35.6 °F 47% 30.14 in 10.0 mi East 6.9 mph - N/A   Clear
12:33 PM 55.4 °F - 35.6 °F 47% 30.13 in 10.0 mi ENE 5.8 mph - N/A   Clear
12:53 PM 55.4 °F - 35.6 °F 47% 30.12 in 10.0 mi Calm Calm - N/A   Clear
1:13 PM 55.4 °F - 35.6 °F 47% 30.11 in 10.0 mi NNE 4.6 mph - N/A   Clear
1:33 PM 57.2 °F - 35.6 °F 44% 30.11 in 10.0 mi Calm Calm - N/A   Clear
1:53 PM 57.2 °F - 33.8 °F 41% 30.10 in 10.0 mi Calm Calm - N/A   Clear
2:13 PM 59.0 °F - 33.8 °F 39% 30.09 in 10.0 mi Calm Calm - N/A   Clear
2:33 PM 59.0 °F - 33.8 °F 39% 30.08 in 10.0 mi Calm Calm - N/A   Clear
2:53 PM 59.0 °F - 33.8 °F 39% 30.08 in 7.0 mi Calm Calm - N/A   Clear
3:13 PM 59.0 °F - 33.8 °F 39% 30.07 in 10.0 mi Calm Calm - N/A   Clear
3:33 PM 59.0 °F - 33.8 °F 39% 30.06 in 10.0 mi Calm Calm - N/A   Clear
3:53 PM 59.0 °F - 33.8 °F 39% 30.06 in 10.0 mi Calm Calm - N/A   Clear
4:12 PM 60.8 °F - 35.6 °F 39% 30.05 in 7.0 mi SSW 4.6 mph - N/A   Clear
4:33 PM 60.8 °F - 35.6 °F 39% 30.05 in 10.0 mi South 3.5 mph - N/A   Clear
4:53 PM 60.8 °F - 33.8 °F 36% 30.05 in 10.0 mi Calm Calm - N/A   Clear
5:12 PM 59.0 °F - 35.6 °F 42% 30.05 in 10.0 mi SSW 3.5 mph - N/A   Clear
5:33 PM 59.0 °F - 35.6 °F 42% 30.04 in 10.0 mi SW 6.9 mph - N/A   Clear
5:53 PM 55.4 °F - 35.6 °F 47% 30.04 in 10.0 mi SW 5.8 mph - N/A   Clear
6:13 PM 53.6 °F - 33.8 °F 47% 30.04 in 10.0 mi SW 4.6 mph - N/A   Clear
6:33 PM 53.6 °F - 33.8 °F 47% 30.04 in 10.0 mi SSW 4.6 mph - N/A   Clear
6:53 PM 53.6 °F - 33.8 °F 47% 30.04 in 10.0 mi SSW 3.5 mph - N/A   Clear
7:13 PM 51.8 °F - 33.8 °F 50% 30.04 in 10.0 mi SSE 3.5 mph - N/A   Clear
7:33 PM 50.0 °F - 33.8 °F 54% 30.04 in 10.0 mi SSE 3.5 mph - N/A   Clear
7:53 PM 51.8 °F - 33.8 °F 50% 30.03 in 10.0 mi SSE 5.8 mph - N/A   Scattered Clouds
8:13 PM 51.8 °F - 35.6 °F 54% 30.03 in 10.0 mi South 4.6 mph - N/A   Scattered Clouds
8:33 PM 50.0 °F - 33.8 °F 54% 30.03 in 10.0 mi SW 10.4 mph - N/A   Clear
8:52 PM 46.4 °F 43.5 °F 33.8 °F 62% 30.03 in 10.0 mi SW 5.8 mph - N/A   Clear
9:13 PM 46.4 °F 43.5 °F 35.6 °F 66% 30.02 in 10.0 mi SSW 5.8 mph - N/A   Scattered Clouds
9:33 PM 48.2 °F - 35.6 °F 62% 30.02 in 10.0 mi SSW 4.6 mph - N/A   Clear
9:52 PM 46.4 °F 44.3 °F 35.6 °F 66% 30.01 in 10.0 mi SSW 4.6 mph - N/A   Clear
10:13 PM 44.6 °F 41.4 °F 35.6 °F 71% 30.01 in 10.0 mi South 5.8 mph - N/A   Clear
10:33 PM 44.6 °F 41.4 °F 35.6 °F 71% 30.00 in 10.0 mi SSW 5.8 mph - N/A   Clear
10:52 PM 44.6 °F 40.7 °F 35.6 °F 71% 29.99 in 10.0 mi South 6.9 mph - N/A   Clear
11:13 PM 44.6 °F 40.7 °F 37.4 °F 76% 29.99 in 10.0 mi SW 6.9 mph - N/A   Clear
11:33 PM 44.6 °F 41.4 °F 37.4 °F 76% 29.98 in 10.0 mi SSW 5.8 mph - N/A   Scattered Clouds
11:52 PM 44.6 °F 40.2 °F 37.4 °F 76% 29.98 in 10.0 mi SW 8.1 mph - N/A   Clear